Weather History for Hailey, ID

Change the Weather History Date:

Thursday, September 12, 2013

  Actual Average Record
Temperature  
Mean Temperature 66 °F -  
Max Temperature 78 °F 71 °F 84 °F (2006)
Min Temperature 55 °F 43 °F 33 °F (2014)
Cooling Degree Days 2    
Growing Degree Days 16 (Base 50)    
Moisture  
Dew Point 51 °F    
Average Humidity 60    
Maximum Humidity 94    
Minimum Humidity 38    
Precipitation  
Precipitation 0.00 in - - ()
Sea Level Pressure  
Sea Level Pressure 30.20 in    
Wind  
Wind Speed 8 mph (ENE)    
Max Wind Speed 18 mph    
Max Gust Speed 30 mph    
Visibility 10 miles    
Events Rain , Thunderstorm    
Averages and records for this station are not official NWS values.
T = Trace of Precipitation, MM = Missing Value Source: NWS Daily Summary

Daily Weather History Graph

Daily Weather History Graph

Search for Another Location

Airport:

Trip Planner

Search our weather history database for the weather conditions in past years. The results will help you decide how hot, cold, wet, or windy it might be!

Date:

Astronomy

Sep. 12, 2013 Rise Set
Actual Time 7:13 AM MDT 7:52 PM MDT
Civil Twilight 6:44 AM MDT 8:20 PM MDT
Nautical Twilight 6:10 AM MDT 8:55 PM MDT
Astronomical Twilight 5:35 AM MDT 9:30 PM MDT
Moon 2:56 PM MDT (9/12) No Moon Set
Length of Visible Light 13h 36m
Length of Day
12h 38m
Waxing Crescent, 51% of the Moon is Illuminated
Sep 12
Waxing Crescent
Sep 19
Full
Sep 26
Last Quarter
Oct 4
New
Oct 11
First Quarter

Hourly Weather History & Observations

Time (MDT) Temp. Dew Point Humidity Pressure Visibility Wind Dir Wind Speed Gust Speed Precip Events Conditions
12:15 AM 68.0 °F 50.0 °F 52% 30.20 in 10.0 mi WNW 6.9 mph - N/A   Mostly Cloudy
12:35 AM 68.0 °F 50.0 °F 52% 30.20 in 10.0 mi Calm Calm - N/A   Overcast
12:55 AM 71.6 °F 46.4 °F 41% 30.20 in 10.0 mi Calm Calm - N/A   Overcast
1:15 AM 71.6 °F 46.4 °F 41% 30.20 in 10.0 mi Calm Calm - N/A   Overcast
1:35 AM 71.6 °F 46.4 °F 41% 30.21 in 10.0 mi East 15.0 mph 20.7 mph N/A   Overcast
1:55 AM 71.6 °F 46.4 °F 41% 30.21 in 10.0 mi ENE 16.1 mph 25.3 mph N/A   Overcast
2:15 AM 69.8 °F 46.4 °F 43% 30.23 in 10.0 mi East 13.8 mph 24.2 mph N/A   Overcast
2:35 AM 69.8 °F 48.2 °F 46% 30.22 in 10.0 mi East 18.4 mph 28.8 mph N/A   Mostly Cloudy
2:55 AM 68.0 °F 50.0 °F 52% 30.23 in 10.0 mi East 16.1 mph 29.9 mph N/A   Overcast
3:15 AM 66.2 °F 51.8 °F 60% 30.24 in 10.0 mi ESE 9.2 mph - N/A   Overcast
3:35 AM 64.4 °F 51.8 °F 64% 30.23 in 10.0 mi SSE 17.3 mph 24.2 mph N/A   Mostly Cloudy
3:55 AM 64.4 °F 50.0 °F 59% 30.23 in 10.0 mi SE 15.0 mph 24.2 mph N/A   Overcast
4:15 AM 62.6 °F 51.8 °F 68% 30.23 in 10.0 mi East 9.2 mph 20.7 mph N/A Rain Rain
4:35 AM 62.6 °F 51.8 °F 68% 30.23 in 10.0 mi ENE 6.9 mph - N/A Rain Light Rain
4:55 AM 62.6 °F 51.8 °F 68% 30.22 in 10.0 mi North 10.4 mph - N/A   Overcast
5:15 AM 62.6 °F 53.6 °F 72% 30.22 in 10.0 mi NNW 8.1 mph - N/A   Overcast
5:35 AM 60.8 °F 51.8 °F 72% 30.23 in 5.0 mi ENE 3.5 mph 26.5 mph N/A   Drizzle
5:55 AM 60.8 °F 53.6 °F 77% 30.22 in 10.0 mi NNW 10.4 mph - N/A   Overcast
6:15 AM 60.8 °F 53.6 °F 77% 30.21 in 10.0 mi West 6.9 mph - N/A   Overcast
6:35 AM 60.8 °F 53.6 °F 77% 30.21 in 10.0 mi West 6.9 mph - N/A   Overcast
6:47 AM 62.6 °F 53.6 °F 72% 30.22 in 10.0 mi WNW 5.8 mph - N/A   Mostly Cloudy
6:55 AM 60.8 °F 53.6 °F 77% 30.22 in 10.0 mi WNW 3.5 mph - N/A   Overcast
7:47 AM 68.0 °F 48.2 °F 49% 30.22 in 10.0 mi East 6.9 mph - N/A   Mostly Cloudy
8:48 AM 66.2 °F 48.2 °F 52% 30.22 in 10.0 mi North 9.2 mph - N/A   Mostly Cloudy
9:47 AM 71.6 °F 48.2 °F 43% 30.22 in 10.0 mi East 9.2 mph - N/A   Mostly Cloudy
10:47 AM 71.6 °F 46.4 °F 41% 30.22 in 10.0 mi East 9.2 mph - N/A   Mostly Cloudy
11:55 AM 71.6 °F 48.2 °F 43% 30.20 in 10.0 mi SSE 9.2 mph 16.1 mph N/A   Mostly Cloudy
12:47 PM 73.4 °F 48.2 °F 41% 30.19 in 10.0 mi ESE 9.2 mph - N/A   Mostly Cloudy
3:54 PM 77.0 °F 51.8 °F 41% 30.11 in 10.0 mi SE 9.2 mph 18.4 mph N/A Thunderstorm Mostly Cloudy
4:50 PM 78.8 °F 51.8 °F 39% 30.10 in 10.0 mi SSE 17.3 mph - N/A   Mostly Cloudy
5:50 PM 75.2 °F 48.2 °F 38% 30.08 in 10.0 mi ESE 8.1 mph - N/A   Mostly Cloudy
7:47 PM 68.0 °F 51.8 °F 56% 30.11 in 10.0 mi WNW 4.6 mph - N/A   Mostly Cloudy
8:50 PM 64.4 °F 51.8 °F 64% 30.13 in 10.0 mi WNW 9.2 mph - N/A   Mostly Cloudy
9:50 PM 62.6 °F 51.8 °F 68% 30.14 in 10.0 mi WNW 15.0 mph - N/A   Mostly Cloudy
10:15 PM 64.4 °F 53.6 °F 68% 30.17 in 10.0 mi Calm Calm - N/A Thunderstorm Mostly Cloudy
10:47 PM 60.8 °F 55.4 °F 82% 30.16 in 10.0 mi North 4.6 mph - N/A Thunderstorm Mostly Cloudy
11:15 PM 57.2 °F 55.4 °F 94% 30.18 in 10.0 mi South 5.8 mph - N/A Rain Light Rain
11:35 PM 55.4 °F 53.6 °F 94% 30.19 in 5.0 mi Calm Calm - N/A Rain , Thunderstorm Light Thunderstorms and Rain
11:55 PM 57.2 °F 53.6 °F 88% 30.19 in 5.0 mi WNW 6.9 mph - N/A Rain Rain